Location: D�rnast
(49.6426°N, 11.9755°E)
Time: 20:32:40
(UTC+00:00)

Cosmos 2058 Rocket - Pass Details

Date: 24 January 2021
Orbit: 611 x 639 km, 82.5° (Epoch: 02 March)

Event Time Altitude Azimuth Distance (km) Brightness Sun altitude
Rises 16:59:31 0° 348° (NNW) 2,948 6.5 -10.5°
Reaches altitude 10° 17:01:46 10° 347° (NNW) 2,037 5.7 -10.9°
Maximum altitude 17:06:17 77° 263° (W) 662 3.3 -11.6°
Drops below altitude 10° 17:10:47 10° 177° (S) 2,025 5.9 -12.3°
Sets 17:13:01 0° 176° (S) 2,929 6.7 -12.6°
